Vertical_Velocity
-0 2 -1 1 -1 -2 -2 3 -5 3 -1 -2 -7 1 3 0 2 3 0 -0 -1 -2 -2 -2 -3 -2 -2 0 1 -0 -1 -3 -5 -4 -4 -2 -1 -1 -2 -3 -4 -5 -3 1
1 2 2 -2 -1 1 2 2 0 3 -1 -1 1 -0 -0 0 1 -1 -3 -3 -3 -2 -2 -2 -3 -1 -1 -2 -1 -2 -4 -1 0 1 -1 -4 -5 -4 -5 -3 -4 -3 -1 -2
2 1 0 -2 -0 -2 1 4 -1 -2 2 5 1 5 3 1 -2 -1 -2 -1 -0 -0 -1 -1 -0 1 1 -1 1 -0 2 -1 -3 -4 -5 -4 -4 -3 -3 -3 -3 -1 0 -0
3 -2 -6 1 2 2 1 -0 0 -2 -1 3 5 0 -2 -1 -1 1 2 1 1 3 4 3 0 0 -1 -1 1 2 -1 -3 -5 -4 -4 -6 -5 -4 -5 -4 -4 -2 0 0
-1 0 -0 1 1 -4 1 4 0 0 1 3 -0 1 -3 3 2 0 1 2 1 -3 -5 -2 0 -2 -1 0 0 -1 -4 -7 -7 -7 -4 -5 -4 -3 -1 -3 -3 -3 -1 0
1 -6 -4 2 -1 -5 0 -4 3 1 1 0 0 2 -3 0 -1 -1 -1 -1 -0 3 2 -1 0 -0 -1 -3 -2 -3 -3 -2 -5 -4 -4 -3 -2 -3 -3 -4 -3 -5 -2 -2
-2 -3 -1 4 1 2 -4 9 -0 1 -1 -0 -1 2 5 3 1 2 5 5 2 -2 -3 -0 -1 -0 0 -1 1 -1 -4 -6 -6 -5 -5 -5 -4 -3 -4 -4 -2 -3 -5 0
-3 -1 -5 0 1 -1 1 1 2 2 4 3 1 -0 1 0 0 1 -0 -2 0 0 0 -0 -1 -2 -3 -3 -3 -6 -2 -4 -4 -3 -4 -5 -3 -0 -0 -6 -4 -1 -2 -0
-3 1 4 2 2 0 1 2 1 2 3 4 3 2 0 -1 -0 -1 -1 1 -0 -2 -3 -1 -3 -1 -5 -4 -0 -3 -0 -2 -2 -1 -2 -2 -1 -2 -1 -3 -4 -0 -5 -7
-1 3 2 2 2 4 4 1 2 0 -3 -2 -2 -2 -1 -2 -3 -2 -2 -2 -3 -2 -3 -2 -2 -6 -3 -1 1 -0 0 -3 -2 -1 -0 0 -3 -4 -4 -5 -4 -4 -4 -3
2 -0 -0 2 3 0 2 1 -0 -1 -1 -2 -1 -4 -4 -1 -2 -2 -1 -1 -2 -1 -3 -3 -1 -7 -7 -3 -3 -2 -2 -1 -2 -1 -2 -5 -0 -6 -6 4 -9 -12 -4 -8
1 -0 -1 2 -2 0 -0 -1 -1 -2 -3 -3 -3 -1 -2 -2 -1 -1 -1 1 -0 -2 -2 -2 -2 -5 -1 -1 -1 -1 -1 -2 0 -5 -6 -4 -8 5 13 -2 2 -3 -4 -6
3 1 -0 -3 -0 0 -1 -3 -1 -1 -2 -2 -2 -1 -1 -1 -0 2 0 -1 -2 -5 -4 -0 1 -3 -3 -3 -3 -4 -4 -1 -2 -4 -2 -6 -3 -8 -8 14 2 3 -8 0
-0 -1 -2 -2 -2 -1 1 1 1 1 1 1 0 0 2 3 1 -1 -0 -0 -2 -4 -5 0 0 -3 -0 -3 -2 -1 -1 -3 -6 -4 -3 -6 -6 -3 -4 -8 -3 8 13 -5
1 2 1 -0 0 -1 -2 -1 -2 -4 -2 0 2 1 0 -1 -2 -3 -3 -1 -3 -3 -4 2 0 -4 -2 -3 -1 1 -1 -2 -3 -2 -2 -4 -5 -4 -5 -3 -3 -2 1 5
2 1 1 -0 0 -0 -0 -1 -0 1 1 1 -0 -0 -0 -1 -2 -0 -2 -1 1 0 -4 -5 -3 -1 -0 -0 -1 -1 -0 -2 -3 -3 -5 -3 -2 -4 -3 -2 -2 -2 -1 -4
1 0 -1 -4 -2 -1 -1 -1 -0 -1 -2 -1 -1 -2 -1 -0 -0 -0 0 -1 -4 -5 -4 -1 1 2 0 -2 -4 -2 -1 -0 -2 -4 -5 -2 -2 -2 -3 -5 -3 1 0 -1
-3 -2 -1 1 0 -2 -3 -2 -1 -0 -1 -2 -2 -0 -0 -0 -1 -4 -0 -2 -7 -2 -6 -2 -2 -1 -3 -3 -2 -1 -3 -3 -2 -5 -4 -3 -3 -4 -3 -5 -4 -4 0 1
1 1 -1 -3 -2 -1 -1 -1 -1 -1 -0 1 1 -1 -2 -2 -1 -1 -1 -1 -6 1 3 2 0 0 -1 -1 -3 -1 -2 -1 -2 -3 -3 -2 -1 -1 -1 -1 0 -2 -2 -0
0 -3 -2 -1 -2 -1 -2 -3 -2 -2 -0 0 -1 -2 -1 -5 -2 -2 -2 2 -6 1 2 0 -1 -2 -2 -1 1 -1 -2 -2 -4 -2 -3 -3 -2 -3 -3 -2 -3 -3 -1 -0
1 -0 -3 -2 -2 -2 -0 1 -0 -3 -2 -3 -2 -2 0 -3 -3 -2 -1 1 0 -2 -1 -1 -3 -2 -1 -1 1 -1 1 -1 -2 -3 -2 -1 -1 -2 -2 -3 -3 -2 -0 -1
-1 -2 -1 1 3 2 0 -1 -3 -1 -2 -1 1 -1 -0 -2 -1 1 -3 -4 3 -2 -1 -1 -2 1 -1 2 0 0 -1 -3 -3 -5 -3 -1 -3 -3 -1 -4 -3 -1 -3 -2
-3 -2 -2 -5 -3 -1 -3 -1 2 1 1 -0 -2 -3 -2 -1 -1 -4 4 3 2 2 2 -0 -2 -1 0 2 1 0 -2 -1 -2 -3 -1 -2 -4 -3 -3 -1 -1 -1 -1 -1
-1 -3 0 -2 -1 -0 0 -2 2 -1 -1 -2 -3 -4 -4 -3 1 -6 -3 -3 -3 -3 -2 -5 -1 1 -1 -3 -3 -3 -3 -1 -2 -2 0 -3 -5 -5 -4 -2 -3 -4 -1 0
-2 -0 -0 -1 -1 -3 -1 -2 -2 -2 -1 -1 -1 -3 -1 -1 -1 5 3 4 1 -2 1 1 1 1 1 -0 -2 -3 -0 -1 -1 -1 0 1 -0 -1 -1 -2 -2 -1 0 -1
-1 -2 -2 -3 -3 -3 -1 0 -1 -2 -1 -0 0 -0 1 -0 -1 -2 -2 -3 -3 -1 -1 -1 0 0 -0 -1 0 -1 -1 -1 -1 1 -2 1 -1 -1 -1 -2 -1 0 -1 -1
-2 -3 -3 -2 0 -1 -2 -1 -2 -1 -0 0 3 -0 1 -0 -1 -2 -2 -1 0 0 -1 0 1 -1 -2 -2 -1 -2 -1 -1 -1 -3 -0 1 1 1 0 -2 -1 -1 -2 -1
Height
5707 5712 5716 5720 5722 5725 5727 5729 5730 5734 5733 5731 5731 5734 5735 5734 5732 5731 5729 5726 5723 5719 5716 5712 5707 5701 5695 5688 5681 5674 5666 5659 5651 5643 5634 5625 5614 5602 5590 5576 5562 5548 5535 5522
5705 5709 5712 5715 5717 5719 5722 5725 5727 5728 5728 5724 5729 5728 5728 5726 5725 5723 5720 5717 5714 5710 5706 5701 5695 5689 5682 5675 5668 5659 5651 5643 5635 5626 5615 5603 5592 5580 5565 5550 5535 5522 5509 5499
5703 5705 5707 5709 5713 5715 5717 5720 5722 5722 5725 5724 5724 5723 5722 5720 5718 5715 5712 5709 5705 5700 5695 5689 5683 5675 5667 5660 5652 5643 5634 5625 5616 5606 5594 5581 5568 5553 5538 5525 5512 5500 5489 5479
5700 5700 5701 5708 5709 5710 5713 5715 5717 5719 5720 5720 5718 5717 5714 5713 5710 5707 5703 5699 5694 5689 5683 5675 5667 5661 5653 5645 5637 5626 5616 5605 5595 5585 5571 5557 5541 5525 5513 5501 5490 5480 5471 5461
5695 5698 5702 5703 5704 5706 5708 5711 5713 5714 5713 5713 5712 5710 5707 5704 5701 5697 5692 5688 5682 5675 5668 5662 5655 5647 5639 5630 5618 5608 5597 5585 5573 5561 5547 5531 5517 5505 5493 5483 5473 5463 5452 5443
5693 5694 5696 5699 5701 5702 5704 5705 5707 5707 5707 5705 5704 5703 5700 5696 5691 5686 5681 5675 5668 5662 5655 5648 5640 5631 5621 5611 5602 5590 5577 5564 5552 5538 5523 5510 5498 5487 5476 5464 5454 5444 5436 5423
5688 5689 5691 5694 5696 5696 5698 5704 5700 5699 5698 5697 5695 5692 5690 5685 5680 5675 5669 5663 5656 5648 5641 5633 5625 5616 5607 5598 5586 5574 5562 5549 5531 5516 5504 5492 5482 5469 5459 5449 5436 5425 5415 5403
5682 5684 5687 5689 5690 5691 5692 5692 5691 5691 5689 5687 5684 5680 5676 5672 5667 5662 5656 5649 5642 5635 5627 5619 5610 5601 5592 5581 5570 5556 5541 5526 5512 5499 5488 5477 5465 5453 5440 5427 5414 5401 5388 5378
5678 5680 5682 5683 5684 5684 5684 5683 5682 5681 5679 5676 5672 5668 5664 5660 5654 5648 5641 5634 5627 5619 5610 5602 5592 5583 5574 5562 5550 5536 5521 5507 5495 5485 5473 5460 5448 5437 5423 5407 5391 5378 5364 5353
5672 5675 5675 5676 5677 5677 5676 5675 5673 5671 5668 5665 5661 5656 5651 5646 5639 5632 5625 5617 5609 5600 5592 5583 5574 5565 5556 5544 5530 5516 5504 5492 5481 5470 5460 5449 5437 5420 5402 5385 5371 5357 5345 5335
5666 5666 5667 5668 5668 5667 5666 5665 5663 5660 5656 5652 5647 5642 5636 5629 5622 5616 5608 5600 5593 5585 5577 5569 5558 5547 5536 5522 5510 5499 5488 5477 5467 5457 5446 5437 5424 5404 5386 5370 5352 5339 5329 5319
5657 5658 5657 5658 5658 5657 5655 5653 5650 5647 5643 5638 5632 5626 5620 5614 5607 5600 5593 5586 5578 5570 5562 5554 5542 5527 5515 5503 5492 5482 5473 5463 5453 5443 5434 5420 5406 5395 5375 5357 5345 5330 5318 5308
5650 5649 5647 5647 5647 5645 5642 5640 5637 5632 5627 5623 5616 5610 5604 5598 5592 5586 5579 5572 5564 5556 5548 5536 5523 5509 5497 5486 5475 5466 5458 5450 5440 5429 5417 5403 5389 5374 5363 5352 5335 5323 5312 5302
5640 5639 5638 5636 5633 5630 5628 5624 5621 5616 5611 5605 5600 5594 5589 5583 5577 5571 5564 5557 5549 5539 5529 5518 5506 5492 5481 5471 5462 5454 5444 5433 5424 5414 5400 5387 5373 5360 5348 5338 5328 5318 5306 5294
5627 5627 5626 5624 5622 5619 5616 5612 5607 5602 5597 5591 5586 5580 5575 5569 5563 5557 5551 5542 5532 5522 5511 5500 5488 5476 5466 5458 5449 5440 5430 5421 5410 5399 5387 5373 5359 5346 5336 5326 5315 5305 5295 5286
5615 5614 5614 5612 5609 5606 5601 5596 5591 5587 5582 5578 5573 5567 5561 5555 5549 5542 5533 5525 5516 5504 5492 5482 5471 5461 5453 5444 5436 5427 5417 5406 5395 5385 5373 5359 5345 5333 5324 5314 5304 5294 5284 5275
5603 5601 5599 5597 5592 5588 5584 5580 5576 5572 5567 5561 5557 5551 5546 5540 5534 5526 5517 5508 5497 5487 5475 5465 5456 5447 5438 5430 5422 5413 5403 5394 5383 5371 5358 5345 5331 5321 5311 5301 5292 5283 5274 5266
5589 5587 5583 5579 5575 5572 5568 5565 5561 5556 5552 5548 5544 5539 5534 5527 5519 5511 5501 5489 5478 5469 5457 5448 5439 5431 5423 5415 5408 5399 5389 5380 5369 5357 5344 5330 5318 5308 5300 5290 5281 5272 5265 5258
5572 5570 5567 5564 5561 5558 5555 5551 5547 5542 5539 5535 5531 5525 5518 5511 5503 5493 5483 5471 5460 5453 5443 5432 5424 5416 5409 5402 5394 5386 5376 5366 5354 5342 5328 5316 5307 5298 5290 5281 5272 5265 5258 5252
5560 5557 5554 5551 5548 5544 5541 5537 5534 5530 5526 5520 5514 5508 5500 5492 5484 5474 5464 5453 5440 5435 5427 5419 5411 5404 5397 5389 5380 5370 5360 5350 5339 5327 5315 5304 5295 5287 5279 5271 5263 5257 5251 5245
5548 5546 5542 5539 5535 5532 5528 5524 5519 5515 5510 5504 5497 5491 5483 5473 5464 5455 5445 5437 5425 5417 5411 5404 5396 5390 5383 5375 5366 5355 5345 5335 5323 5312 5301 5292 5284 5276 5268 5261 5255 5249 5245 5240
5534 5531 5528 5525 5522 5518 5514 5510 5505 5500 5493 5487 5479 5471 5464 5454 5445 5435 5425 5417 5413 5406 5400 5392 5384 5376 5368 5360 5351 5341 5330 5319 5308 5297 5287 5279 5271 5265 5258 5251 5245 5240 5236 5233
5520 5517 5514 5510 5507 5502 5497 5493 5487 5481 5474 5467 5460 5453 5445 5436 5426 5418 5413 5404 5398 5391 5385 5377 5369 5361 5353 5344 5334 5324 5313 5302 5292 5282 5274 5266 5259 5253 5247 5241 5235 5230 5227 5226
5506 5502 5498 5494 5490 5485 5480 5476 5470 5464 5457 5449 5440 5432 5424 5418 5410 5401 5396 5390 5384 5377 5370 5362 5354 5345 5336 5327 5317 5306 5296 5285 5276 5268 5261 5254 5247 5240 5234 5230 5226 5222 5221 5220
5491 5488 5483 5479 5475 5471 5466 5459 5454 5447 5440 5430 5421 5413 5407 5401 5397 5391 5383 5376 5369 5362 5356 5347 5337 5328 5319 5309 5298 5287 5277 5268 5261 5255 5249 5243 5236 5230 5225 5221 5218 5216 5214 5215
5477 5473 5469 5465 5460 5455 5449 5443 5436 5429 5422 5414 5405 5399 5392 5386 5380 5375 5368 5361 5355 5347 5339 5330 5321 5311 5301 5291 5280 5269 5261 5254 5248 5242 5236 5231 5224 5219 5216 5213 5211 5210 5209 5211
5462 5459 5454 5450 5445 5439 5433 5426 5418 5411 5404 5398 5392 5385 5379 5373 5366 5360 5353 5346 5339 5331 5322 5313 5303 5293 5282 5271 5262 5254 5247 5241 5235 5230 5226 5220 5214 5211 5208 5206 5205 5205 5206 5208